Location: Martley
(52.2333°N, 2.3667°W)
Time: 23:03:30
(UTC+00:00)

Meteor 1-13 Rocket - Pass Details

Date: 11 December 2019
Orbit: 830 x 913 km, 81.3° (Epoch: 18 January)

Event Time Altitude Azimuth Distance (km) Brightness Sun altitude
Exits shadow 06:36:03 - 344° (NNW) 3,223 6.9 -13.1°
Reaches altitude 10° 06:38:03 10° 341° (NNW) 2,452 6.2 -12.8°
Maximum altitude 06:43:29 59° 263° (W) 966 4.2 -12.0°
Drops below altitude 10° 06:48:56 10° 186° (S) 2,461 6.9 -11.3°
Sets 06:51:22 0° 182° (S) 3,402 7.6 -10.9°
